This is the latest recevied weather packets stored in our database for station/object PERPET. If no packets are shown the sender has not sent any weather packets the latest 10 day(s).
| Time | Temp. | Humidity | Pressure | Rain* | Wind** | Luminosity | Snow |
|---|---|---|---|---|---|---|---|
| 1777841566 | 21.67° C | - | 1011.7 hPa | 0 mm | - | - | - |
| 1777841264 | 21.67° C | - | 1011.7 hPa | 0 mm | - | - | - |
| 1777840964 | 22.22° C | - | 1011.7 hPa | 0 mm | - | - | - |
| 1777840663 | 22.22° C | - | 1011.7 hPa | 0 mm | - | - | - |
| 1777840364 | 23.33° C | - | 1011.8 hPa | 0 mm | - | - | - |
| 1777840063 | 23.89° C | - | 1011.8 hPa | 0 mm | - | - | - |
| 1777839765 | 24.44° C | - | 1011.7 hPa | 0 mm | - | - | - |
| 1777839463 | 24.44° C | - | 1011.7 hPa | 0 mm | - | - | - |
| 1777839165 | 24.44° C | - | 1011.8 hPa | 0 mm | - | - | - |
| 1777838864 | 24.44° C | - | 1011.8 hPa | 0 mm | - | - | - |
| 1777838565 | 25° C | - | 1011.8 hPa | 0 mm | - | - | - |
| 1777838263 | 25° C | - | 1011.8 hPa | 0 mm | - | - | - |
| 1777837964 | 25° C | - | 1011.9 hPa | 0 mm | - | - | - |
| 1777837663 | 25° C | - | 1011.9 hPa | 0 mm | - | - | - |
| 1777837364 | 25° C | - | 1011.9 hPa | 0 mm | - | - | - |
| 1777837063 | 24.44° C | - | 1011.9 hPa | 0 mm | - | - | - |
| 1777836763 | 24.44° C | - | 1011.9 hPa | 0 mm | - | - | - |
| 1777836463 | 25° C | - | 1011.9 hPa | 0 mm | - | - | - |
| 1777836164 | 24.44° C | - | 1012 hPa | 0 mm | - | - | - |
| 1777835863 | 24.44° C | - | 1012 hPa | 0 mm | - | - | - |
| 1777835563 | 24.44° C | - | 1012.1 hPa | 0 mm | - | - | - |
| 1777835263 | 24.44° C | - | 1012.1 hPa | 0 mm | - | - | - |
| 1777834964 | 23.89° C | - | 1012.1 hPa | 0 mm | - | - | - |
| 1777834663 | 23.33° C | - | 1012.3 hPa | 0 mm | - | - | - |
| 1777834364 | 23.89° C | - | 1012.1 hPa | 0 mm | - | - | - |
* Rain latest hour (hover to see other rain measurements)
** Current wind speed in m/s (hover to see current wind gust speed)